Wind_Speed
16 16 16 19 21 22 24 23 24 23 21 21 22 22 20 17 15 17 20 24 26 27 27 26 26 27 28 28 28 30 30 29 28 27 24 23 23 22 21 22 22 23 22
19 19 20 23 22 23 28 29 27 26 25 22 19 20 20 19 20 20 21 24 26 27 27 25 24 24 25 26 26 28 29 30 29 29 27 26 25 24 25 26 26 27 27
22 23 27 29 31 37 33 34 34 28 24 22 20 20 19 19 18 18 19 21 23 25 27 29 31 28 26 25 25 26 26 27 27 28 30 29 29 28 28 27 28 29 29
21 27 32 35 40 34 40 44 36 32 26 28 24 21 18 19 20 20 21 22 23 21 19 20 20 21 22 24 25 26 27 28 29 29 27 27 27 28 29 30 31 31 32
19 25 24 22 25 34 40 38 40 32 31 30 30 26 20 23 23 22 21 20 20 21 20 21 22 22 23 23 24 26 26 27 27 28 28 27 27 27 29 30 31 33 35
16 17 13 20 22 32 21 25 31 31 31 32 35 26 21 22 23 23 22 22 21 21 22 23 25 26 26 26 28 29 30 31 31 31 32 33 33 32 32 32 33 34 35
13 15 17 15 17 19 15 3 7 22 25 26 25 28 24 23 23 23 23 24 25 26 28 30 29 31 32 31 31 32 33 34 34 34 35 36 37 38 38 39 39 39 41
12 7 13 16 16 15 16 11 10 9 11 16 19 21 23 25 26 26 26 26 27 29 29 30 30 31 33 34 35 36 36 36 36 37 37 39 40 41 42 43 43 44 44
8 10 12 17 20 17 20 18 17 19 18 19 23 24 26 28 29 30 31 30 30 32 33 35 36 37 38 39 40 40 40 40 41 42 43 42 43 44 45 47 47 48 48
10 16 18 20 20 21 22 23 23 25 23 22 26 30 31 31 31 31 33 34 36 36 36 38 39 39 40 41 42 42 42 43 44 45 46 47 47 48 48 48 49 48 48
16 18 21 22 26 26 27 23 26 28 25 26 32 31 32 33 34 35 35 38 38 39 40 40 40 41 42 42 45 47 47 48 49 49 48 49 49 49 49 50 51 51 50
24 25 29 29 28 27 25 25 26 27 28 31 33 33 33 34 36 38 39 39 39 40 41 42 43 45 45 45 47 49 50 50 48 48 50 50 50 50 49 49 50 52 52
31 33 32 29 26 26 25 25 29 31 31 33 35 34 34 35 36 38 40 41 42 42 43 44 45 45 47 49 49 47 45 46 46 46 47 48 48 48 46 46 46 47 48
34 33 29 24 23 25 27 28 30 33 35 34 34 36 37 39 35 38 42 44 43 44 47 47 46 46 44 45 43 43 43 43 42 42 41 42 42 42 42 44 44 47 51
37 32 32 27 24 25 28 29 30 30 31 35 37 37 36 38 41 44 44 46 44 46 47 46 44 42 42 41 39 38 39 39 40 39 39 40 40 40 41 44 46 47 49
33 36 32 32 28 27 29 30 30 32 39 37 34 37 38 40 43 44 44 44 44 44 44 43 42 41 38 35 33 34 35 36 36 36 38 39 40 41 42 42 42 43 44
35 37 35 28 29 29 31 30 33 40 31 34 36 37 39 39 38 40 43 44 45 44 43 42 40 36 33 32 32 33 32 34 35 36 38 41 43 44 42 39 39 39 39
39 34 32 31 35 31 33 37 34 30 33 35 35 34 35 36 40 42 42 41 38 37 36 33 34 33 33 32 32 32 33 34 37 41 43 44 44 42 39 35 34 35 37
28 27 34 31 30 32 29 26 30 31 32 32 31 34 38 39 36 34 33 30 29 32 34 34 34 33 32 35 36 36 36 39 42 44 43 40 38 35 32 30 31 33 34
26 28 28 25 28 27 26 29 29 30 31 32 33 35 33 32 29 30 30 28 29 31 33 34 35 35 34 36 40 40 39 41 42 42 38 35 32 30 27 28 29 30 30
27 24 24 29 25 26 28 28 27 28 28 30 34 31 33 30 32 32 28 29 30 30 31 33 34 36 40 43 40 38 37 38 38 35 33 31 26 25 29 29 27 31 29
23 23 26 27 28 28 26 25 23 27 30 33 34 33 29 28 29 29 27 28 30 31 32 34 36 38 39 39 38 37 36 33 31 30 28 24 25 25 28 28 27 26 25
23 26 27 28 26 25 22 22 25 29 32 33 34 32 29 29 28 25 26 30 35 38 39 40 40 39 40 39 36 33 29 29 28 26 24 28 27 27 27 25 24 23 23
25 25 24 23 24 20 21 24 28 31 31 32 32 30 29 30 29 29 29 32 34 36 39 39 40 39 40 37 32 29 27 26 25 26 27 26 25 22 22 23 23 24 25
24 24 24 23 21 22 23 27 30 32 31 30 30 30 30 30 30 29 29 33 37 42 39 35 38 40 38 34 29 27 27 26 27 26 23 22 21 21 21 22 24 25 27
24 25 23 20 21 22 25 27 30 31 31 31 30 31 31 30 30 30 32 35 38 39 37 37 37 37 34 30 27 26 25 23 21 20 20 20 20 20 22 24 25 27 29
Wind_Direction
296 290 290 291 292 291 284 281 283 284 286 294 307 317 309 305 301 295 293 294 295 295 294 295 295 297 302 303 299 299 302 305 306 309 307 302 298 293 289 287 287 284 283
288 289 285 287 281 279 283 279 275 280 285 291 305 307 310 303 304 299 296 296 294 292 292 290 291 294 294 293 295 297 301 303 305 307 306 304 299 296 293 291 288 287 286
285 287 290 278 277 271 272 266 270 270 278 283 294 301 300 299 300 299 301 307 316 308 293 290 292 294 295 294 295 296 297 296 296 298 299 299 298 295 293 291 289 289 288
308 301 297 295 290 302 273 264 259 264 268 277 287 292 298 299 299 301 308 308 311 311 311 304 298 297 300 304 304 301 300 298 293 292 288 290 292 293 293 290 289 288 287
310 291 312 313 317 310 294 272 259 248 260 270 273 281 293 301 301 301 304 306 310 312 310 305 303 303 303 303 303 300 297 296 295 294 293 292 290 289 289 289 288 288 287
326 317 313 318 314 332 310 250 237 236 256 266 269 269 291 304 302 303 302 303 303 305 304 299 298 298 298 298 297 295 295 294 293 292 292 292 291 288 287 287 287 286 285
304 283 289 310 319 335 354 343 246 251 258 264 268 277 291 300 304 303 302 300 302 303 302 302 300 299 297 296 295 294 293 291 289 287 286 286 287 287 287 288 287 286 285
350 353 318 313 304 321 324 315 298 266 257 263 279 292 302 303 302 304 305 304 303 302 299 294 293 292 293 292 290 289 286 286 287 286 286 286 286 285 285 284 282 282 281
310 337 326 318 312 316 315 302 288 289 288 292 292 300 303 302 303 304 305 303 299 298 298 298 298 298 298 298 297 294 292 290 288 288 288 287 285 284 284 283 283 283 282
286 307 315 312 306 309 301 300 294 291 292 293 299 299 301 301 299 300 302 302 300 298 296 297 298 298 299 297 295 294 293 292 292 292 291 290 290 290 290 291 288 285 282
289 297 301 302 304 304 303 298 293 287 286 293 297 296 297 296 296 297 295 295 296 297 297 297 296 295 294 295 297 295 294 293 293 292 292 293 294 292 290 289 287 286 284
297 286 291 297 294 299 298 298 295 293 293 295 296 296 294 297 299 298 296 295 296 297 298 298 298 296 294 294 295 295 294 294 294 294 293 293 292 290 289 288 286 285 285
298 296 284 284 286 295 297 293 294 295 297 298 295 298 302 302 300 298 297 299 300 301 300 300 299 297 296 295 293 293 294 294 294 293 292 290 288 286 286 286 287 288 287
304 309 289 284 296 297 294 295 297 298 299 297 300 299 300 298 297 304 305 305 302 302 305 304 302 299 297 294 294 295 294 291 288 286 284 283 284 287 288 288 289 289 290
295 296 291 289 293 299 299 300 299 299 303 305 300 301 303 304 300 308 307 308 308 306 304 303 300 298 295 294 294 292 290 289 289 291 292 292 292 292 293 293 291 290 290
295 291 274 282 288 295 298 298 294 297 303 303 303 305 307 305 308 309 310 310 310 307 307 304 300 294 292 291 290 290 293 296 297 297 299 299 300 299 298 296 296 294 294
290 285 269 271 276 288 299 292 288 300 304 309 309 309 310 310 311 314 315 314 313 310 305 298 292 293 293 295 295 296 298 300 304 306 305 306 305 304 304 300 301 299 299
285 291 292 285 286 288 291 300 304 304 306 309 310 311 311 316 318 317 318 317 313 309 303 303 304 304 302 302 302 302 305 307 310 312 312 310 308 304 302 298 295 297 302
298 294 294 284 277 288 300 301 303 309 313 314 315 315 316 317 319 325 332 332 332 332 328 320 315 312 312 314 312 310 307 309 312 312 311 308 306 302 298 296 301 301 302
296 294 293 302 306 296 298 303 310 313 314 313 312 314 321 322 322 325 329 333 337 335 331 327 324 319 316 317 315 311 308 309 310 311 311 308 305 303 301 302 303 305 306
301 294 291 297 297 303 305 309 311 309 307 314 319 322 321 324 327 329 330 334 333 330 328 327 325 320 314 314 314 313 312 312 313 312 310 309 308 306 306 308 302 307 312
298 288 286 292 299 301 301 305 309 312 316 319 318 322 324 323 325 326 327 332 331 331 328 327 326 324 322 318 317 316 316 315 316 316 315 314 306 307 315 313 314 315 314
292 292 294 296 295 297 307 313 314 314 316 318 322 321 320 320 320 320 325 330 330 326 322 321 321 324 325 323 321 320 320 321 319 319 320 317 318 313 315 320 324 325 326
292 291 289 289 297 305 311 310 311 315 320 321 320 320 318 320 314 312 318 320 324 330 326 324 325 328 327 326 323 322 323 323 323 321 321 322 321 324 329 333 334 331 330
292 290 295 302 304 306 305 309 314 317 317 318 315 318 315 314 317 316 315 319 318 320 322 325 328 331 330 328 324 324 324 325 324 325 326 328 330 335 338 337 334 332 328
290 292 298 298 299 300 307 312 315 316 315 314 311 316 316 317 315 319 316 317 320 323 323 323 329 334 333 333 329 328 328 331 333 334 332 331 335 341 339 339 338 336 333
Height
5890 5890 5889 5889 5887 5886 5885 5883 5882 5881 5880 5879 5877 5875 5874 5871 5870 5869 5869 5868 5868 5867 5866 5865 5864 5863 5861 5860 5859 5857 5855 5853 5850 5848 5847 5845 5844 5842 5841 5840 5839 5837 5836
5887 5887 5886 5884 5883 5883 5881 5880 5879 5878 5878 5876 5873 5872 5870 5867 5865 5864 5863 5863 5861 5861 5861 5860 5858 5857 5855 5853 5853 5851 5850 5848 5846 5843 5842 5841 5839 5838 5836 5835 5833 5831 5830
5882 5882 5881 5879 5878 5875 5873 5872 5874 5873 5875 5873 5869 5868 5867 5864 5863 5861 5859 5858 5856 5855 5854 5854 5853 5851 5849 5847 5846 5845 5843 5841 5840 5838 5836 5835 5833 5832 5830 5829 5827 5825 5824
5879 5876 5873 5870 5868 5865 5864 5863 5864 5867 5868 5867 5866 5865 5863 5862 5860 5859 5857 5855 5853 5850 5849 5847 5844 5843 5842 5841 5840 5838 5837 5835 5833 5831 5828 5827 5825 5824 5822 5821 5819 5817 5816
5874 5872 5869 5866 5863 5859 5851 5851 5855 5859 5860 5861 5861 5862 5859 5858 5856 5854 5852 5850 5848 5846 5844 5843 5841 5838 5836 5834 5832 5830 5828 5826 5824 5823 5821 5818 5817 5815 5813 5812 5811 5809 5806
5869 5866 5864 5863 5859 5853 5838 5837 5843 5851 5856 5856 5858 5858 5855 5853 5852 5849 5847 5845 5842 5840 5838 5836 5834 5833 5830 5827 5825 5822 5820 5817 5815 5812 5811 5809 5806 5805 5804 5802 5800 5799 5797
5867 5863 5860 5859 5856 5852 5847 5844 5847 5851 5851 5853 5853 5852 5850 5848 5846 5845 5842 5840 5838 5835 5833 5831 5829 5826 5825 5821 5818 5816 5812 5809 5807 5803 5800 5798 5796 5793 5792 5790 5788 5787 5785
5864 5860 5859 5857 5855 5853 5853 5851 5851 5849 5849 5850 5849 5847 5845 5844 5841 5839 5838 5834 5832 5829 5826 5824 5821 5818 5815 5811 5808 5805 5802 5799 5796 5793 5791 5788 5785 5782 5780 5778 5775 5773 5771
5861 5858 5857 5856 5855 5851 5851 5851 5850 5849 5847 5846 5845 5842 5841 5838 5835 5833 5830 5826 5823 5820 5817 5814 5810 5807 5804 5801 5798 5794 5790 5787 5784 5781 5777 5774 5771 5768 5765 5763 5760 5758 5757
5860 5857 5854 5854 5853 5851 5851 5850 5848 5845 5843 5842 5839 5838 5835 5832 5828 5825 5821 5819 5816 5813 5809 5804 5799 5796 5792 5788 5785 5781 5776 5773 5769 5764 5762 5758 5756 5752 5749 5745 5742 5740 5739
5858 5855 5851 5849 5848 5846 5845 5844 5843 5841 5838 5836 5834 5831 5828 5825 5822 5819 5814 5811 5807 5803 5798 5793 5790 5786 5780 5775 5772 5768 5763 5760 5755 5751 5747 5743 5740 5736 5733 5731 5728 5725 5722
5852 5850 5847 5845 5843 5842 5841 5840 5838 5835 5832 5829 5827 5824 5821 5818 5814 5811 5808 5803 5798 5793 5787 5782 5777 5773 5768 5764 5759 5755 5751 5746 5741 5737 5733 5729 5725 5721 5717 5714 5711 5709 5705
5844 5842 5839 5837 5836 5836 5835 5833 5832 5829 5827 5824 5821 5818 5814 5809 5806 5802 5798 5793 5787 5782 5777 5772 5767 5761 5757 5752 5748 5742 5737 5732 5727 5723 5718 5715 5712 5707 5704 5700 5696 5691 5688
5838 5834 5832 5831 5831 5829 5828 5828 5826 5823 5820 5817 5813 5809 5805 5801 5797 5793 5788 5781 5776 5770 5765 5759 5754 5749 5743 5740 5734 5728 5723 5720 5716 5711 5707 5703 5699 5695 5691 5686 5682 5678 5675
5831 5829 5828 5825 5825 5823 5823 5821 5819 5816 5813 5809 5805 5800 5796 5791 5787 5781 5775 5770 5764 5758 5754 5749 5743 5737 5733 5727 5721 5715 5711 5707 5702 5698 5695 5691 5687 5683 5678 5673 5669 5665 5660
5823 5820 5818 5817 5816 5814 5814 5813 5812 5810 5805 5801 5797 5792 5787 5782 5777 5771 5765 5759 5754 5748 5743 5738 5730 5725 5719 5713 5708 5705 5700 5696 5692 5688 5683 5679 5674 5669 5665 5660 5655 5650 5645
5815 5811 5807 5807 5808 5807 5808 5806 5803 5799 5794 5792 5787 5782 5778 5773 5767 5761 5756 5750 5744 5738 5732 5725 5720 5712 5707 5703 5699 5696 5691 5686 5682 5677 5671 5665 5660 5655 5651 5647 5642 5637 5633
5804 5802 5800 5799 5799 5799 5799 5796 5793 5790 5787 5782 5778 5774 5769 5764 5758 5753 5747 5740 5733 5727 5721 5716 5709 5705 5701 5697 5692 5687 5682 5677 5672 5666 5659 5653 5647 5643 5639 5635 5631 5627 5622
5795 5795 5794 5791 5791 5791 5790 5787 5785 5781 5777 5774 5770 5766 5761 5757 5751 5744 5737 5730 5725 5718 5712 5707 5703 5699 5694 5689 5683 5678 5673 5667 5661 5654 5648 5643 5638 5633 5629 5625 5622 5617 5612
5789 5789 5789 5787 5785 5784 5782 5779 5776 5772 5770 5766 5763 5759 5754 5747 5742 5736 5730 5724 5717 5711 5706 5702 5697 5691 5687 5681 5675 5668 5663 5657 5651 5645 5639 5634 5629 5624 5620 5617 5613 5609 5605
5783 5782 5782 5781 5779 5778 5775 5772 5769 5767 5764 5760 5755 5750 5745 5739 5732 5727 5722 5716 5711 5707 5701 5696 5690 5685 5679 5673 5666 5660 5654 5648 5642 5636 5631 5626 5622 5618 5613 5609 5605 5601 5596
5777 5777 5776 5775 5773 5771 5770 5766 5762 5759 5755 5752 5748 5743 5737 5732 5727 5721 5716 5712 5707 5702 5697 5691 5685 5679 5672 5665 5658 5652 5645 5639 5634 5629 5623 5619 5615 5611 5607 5602 5597 5593 5588
5773 5773 5771 5770 5768 5766 5761 5757 5755 5752 5749 5743 5737 5734 5730 5726 5721 5717 5712 5707 5702 5697 5691 5685 5678 5671 5664 5656 5649 5644 5638 5633 5628 5623 5619 5614 5609 5605 5600 5595 5591 5587 5582
5768 5767 5764 5762 5760 5756 5754 5752 5750 5745 5741 5735 5731 5727 5723 5719 5715 5711 5707 5702 5697 5691 5685 5679 5672 5664 5657 5649 5643 5637 5633 5628 5623 5619 5614 5609 5603 5598 5594 5590 5586 5582 5578
5762 5761 5759 5756 5754 5751 5749 5746 5743 5739 5735 5730 5726 5722 5718 5714 5709 5705 5700 5697 5691 5686 5679 5672 5665 5658 5650 5643 5637 5632 5627 5623 5619 5614 5609 5604 5599 5595 5591 5588 5584 5579 5574
5756 5754 5752 5750 5749 5746 5744 5740 5736 5733 5729 5725 5721 5717 5712 5708 5704 5700 5695 5691 5685 5679 5673 5666 5660 5653 5645 5639 5633 5628 5623 5619 5614 5610 5606 5601 5597 5593 5589 5585 5580 5575 5569